Location: Acts Church of Fort Worth
(32.6786°N, 97.2668°W)
Time: 08:21:48
(UTC+00:00)

Okean 2 - Pass Details

Date: 18 January 2026
Orbit: 515 x 525 km, 82.5° (Epoch: 9 February)

Event Time Altitude Azimuth Distance (km) Brightness Sun altitude
Rises 00:07:15 0° 177° (S) 2,636 7.1 -4.6°
Reaches altitude 10° 00:09:24 10° 173° (S) 1,750 6.1 -5.0°
Maximum altitude 00:13:10 58° 94° (E) 611 3.3 -5.7°
Drops below altitude 10° 00:16:57 10° 15° (NNE) 1,755 5.6 -6.5°
Sets 00:19:07 0° 11° (NNE) 2,644 6.5 -6.9°
